#timestamp,LO_Frequency,Hit 
1504375215.1,286046991.8,N
1504375235.9,286046993.5,N
1504375255.7,286046996.4,N
1504375275.5,286046995.9,N
1504375295.4,286046993.3,N
1504375315.2,286046995.1,N
1504375335.0,286046994.2,N
1504375335.9,286046994.2,N
1504375355.7,286046992.3,N
1504375375.6,286046992.5,N
1504375395.4,286046994.7,N
1504375415.2,286046994.5,N
1504375435.1,286046992.0,N
1504375436.0,286046992.0,N
1504375455.8,286046991.9,N
1504375475.6,286046994.8,N
1504375495.5,286046994.1,N
1504375515.3,286046994.7,N
1504375535.1,286046992.5,N
1504375555.9,286046991.9,N
1504375575.7,286046992.7,N
1504375595.5,286046990.4,P
1504375615.4,286046997.5,N
1504375635.2,286046997.5,N
1504375655.0,286046997.7,N
1504375655.9,286046997.7,N
1504375675.8,286046999.2,N
1504375695.6,286046996.8,N
1504375715.4,286046998.5,N
1504375735.3,286046998.6,N
1504375755.1,286047000.7,N
1504375775.8,286047002.6,N
1504375795.7,286046999.8,N
1504375815.5,286047004.0,N
1504375835.3,286047003.8,N
1504375855.2,286047003.6,N
1504375875.9,286047005.7,N
1504375895.7,286047006.2,N
1504375915.6,286047009.0,N
1504375935.4,286047008.5,N
1504375955.2,286047006.1,N
1504375975.0,286047009.1,N
1504375975.9,286047009.1,N
1504375995.8,286047009.1,N
1504376015.6,286047007.2,N
1504376035.4,286047005.8,N
1504376055.3,286047003.2,N
1504376075.1,286047009.6,N
1504376095.8,286047010.6,N
1504376115.7,286047014.0,N
1504376135.5,286047009.5,N
1504376155.3,286047013.8,N
1504376175.2,286047014.7,N
1504376195.9,286047017.1,P
1504376215.7,286047009.9,N
1504376235.6,286047007.6,N
1504376255.4,286047006.1,N
1504376275.2,286047008.0,N
1504376295.1,286047003.3,N
1504376296.0,286047003.3,N
1504376315.8,286047001.4,N
1504376335.6,286047003.2,N
1504376355.5,286047004.8,N
1504376375.3,286047007.6,N
1504376395.1,286047010.4,N
1504376415.9,286047008.5,N
1504376435.7,286047012.4,P
1504376455.5,286047005.7,N
1504376475.4,286047005.9,N
1504376495.2,286047003.2,N
1504376515.0,286047002.0,N
1504376515.9,286047002.0,N
1504376535.8,286047001.3,N
1504376555.6,286047004.1,N
1504376575.4,286047004.2,N
1504376595.3,286047004.2,N
1504376615.1,286047007.0,N
1504376616.0,286047007.0,N
1504376635.8,286047005.2,N
1504376655.6,286047003.6,N
1504376675.5,286047003.0,N
1504376695.3,286047003.8,N
1504376715.1,286047003.0,N
1504376735.9,286047005.6,N
1504376755.7,286047007.1,N
1504376775.5,286047003.0,N
1504376795.4,286047005.4,N
1504376815.2,286047007.1,N
1504376835.0,286047007.6,P
1504376835.9,286047007.6,P
1504376855.8,286047002.7,N
1504376875.6,286046998.3,N
1504376895.4,286047003.3,N
1504376915.3,286047001.3,N
1504376935.1,286046998.7,N
1504376955.8,286046999.2,N
1504376975.7,286046996.0,N
1504376995.5,286046996.2,N
1504377015.3,286046995.8,N
1504377035.2,286046993.5,N
1504377055.9,286046993.6,N
1504377075.7,286046992.1,N
1504377095.5,286046993.0,N
1504377115.4,286046990.3,N
1504377135.2,286046990.1,N
1504377155.0,286046990.2,N
1504377155.9,286046990.2,N
1504377175.8,286046990.8,N
1504377195.6,286046993.2,N
1504377215.4,286046990.8,N
1504377235.3,286046988.7,N
1504377255.1,286046987.1,N
1504377275.8,286046990.2,N
1504377295.7,286046991.2,N
1504377315.5,286046988.7,N
1504377335.3,286046989.6,N
1504377355.2,286046988.5,N
1504377375.9,286046988.9,N
1504377395.7,286046987.3,N
1504377415.6,286046988.0,N
1504377435.4,286046987.9,N
1504377455.2,286046985.8,P
1504377475.1,286046992.1,N
1504377476.0,286046992.1,N
1504377495.8,286046994.3,N
1504377515.6,286046992.2,N
1504377535.5,286046993.6,N
1504377555.3,286046990.2,P
1504377575.1,286047001.0,N
1504377595.9,286046998.8,N
1504377615.7,286046999.3,N
1504377635.5,286046999.1,N
1504377655.4,286046999.4,N
1504377675.2,286046997.1,N
1504377695.0,286046998.3,N
1504377695.9,286046998.3,N
1504377715.8,286046998.7,N
1504377735.6,286047002.6,N
1504377755.4,286047005.4,N
1504377775.3,286047009.2,N
1504377795.1,286047012.2,N
1504377796.0,286047012.2,N
1504377815.8,286047015.0,N
1504377835.6,286047015.3,N
1504377855.5,286047016.6,N
1504377875.3,286047013.1,N
1504377895.1,286047011.6,N
1504377915.9,286047015.3,N
1504377935.7,286047015.2,N
1504377955.5,286047014.7,N
1504377975.4,286047016.9,N
1504377995.2,286047018.3,N
1504378015.0,286047018.4,N
1504378015.9,286047018.4,N
1504378035.8,286047018.2,N
1504378055.6,286047016.3,N
1504378075.4,286047016.3,N
1504378095.3,286047014.6,N
1504378115.1,286047018.8,N
1504378116.0,286047018.8,N
1504378135.8,286047019.6,N
1504378155.7,286047019.0,N
1504378175.5,286047020.9,N
1504378195.3,286047022.2,P
1504378215.2,286047008.1,N
1504378235.9,286047010.9,N
1504378255.7,286047016.9,P
1504378275.6,286047005.9,P
1504378295.4,286047003.9,N
1504378315.2,286047002.1,N
1504378335.1,286047003.5,N
1504378336.0,286047003.5,N
1504378355.8,286047003.4,N
1504378375.6,286047007.6,N
1504378395.5,286047003.4,N
1504378415.3,286047006.7,N
1504378435.1,286047008.1,N
1504378455.9,286047013.6,P
1504378475.7,286047001.6,N
1504378495.5,286047006.0,N
1504378515.4,286047004.3,N
1504378535.2,286047003.9,N
1504378555.0,286046999.9,N
1504378555.9,286046999.9,N
1504378575.8,286047001.0,N
1504378595.6,286046998.2,N
1504378615.4,286046998.2,N
1504378635.2,286046998.3,N
1504378655.1,286047000.7,N
1504378656.0,286047000.7,N
1504378675.8,286046998.3,N
1504378695.6,286046998.9,N
1504378715.5,286046996.6,N
1504378735.3,286046997.4,N
1504378755.1,286046993.7,N
1504378775.9,286046995.7,N
1504378795.7,286046995.5,N
